Flag for U.S.A. Weather past 2 weeks in Victorville, California, U.S.A.

Now
63 °F

Sunny.


Feels Like: 63 °F
Forecast: 45 / 77 °F
Wind: 14 mph from West

Location: George Air Force Base / Victorvi


UV Index: 7 (High)

Visibility: 10 mi


Pressure: 29.97 "Hg

Humidity: 25%

Dew point: 27 °F

Location of VictorvilleLocation

Historic Weather in Victorville

°F

Victorville temperature yesterday

Maximum temperature yesterday: 72 °F (at 11:55 AM)
Minimum temperature yesterday: 52 °F (at 10:35 PM)
Average temperature yesterday: 62 °F

Past Weeks' High & Low Weather Summary

 TemperatureHumidityPressure
High88 °F (Apr 9, 2:15 PM)82% (Apr 19, 4:35 AM)30.20 "Hg (Apr 19, 4:35 AM)
Low43 °F (Apr 14, 5:35 AM)3% (Apr 9, 2:15 PM)29.77 "Hg (Apr 16, 4:35 PM)
Average66 °F28%29.96 "Hg
* Reported Apr 8 7:15 PM — Apr 23 7:15 PM, Victorville, Weather by CustomWeather, © 2014

Note: Actual official high and low records may vary slightly from our data, if they occured in-between our weather recording intervals... More about our weather records

Advertising

Historic Weather Conditions — Data for Previous 24 hours

 ConditionsComfort  
Time TempWeatherWind HumidityBarometerVisibility
7:15 PM
Apr 23
70 °FSunny.No wind11%29.94 "Hg10 mi
6:55 PM70 °FSunny.3 mph11%29.94 "Hg10 mi
6:35 PM70 °FSunny.No wind11%29.94 "Hg10 mi
6:15 PM72 °FScattered clouds.6 mph10%29.94 "Hg10 mi
5:55 PM72 °FScattered clouds.6 mph11%29.93 "Hg10 mi
5:35 PM72 °FScattered clouds.No wind11%29.93 "Hg10 mi
5:15 PM72 °FSunny.6 mph11%29.93 "Hg10 mi
4:55 PM72 °FScattered clouds.3 mph11%29.93 "Hg10 mi
4:35 PM72 °FScattered clouds.6 mph11%29.93 "Hg10 mi
4:15 PM72 °FScattered clouds.3 mph12%29.93 "Hg10 mi
3:55 PM72 °FScattered clouds.No wind11%29.94 "Hg10 mi
3:15 PM72 °FScattered clouds.7 mph11%29.96 "Hg10 mi
2:55 PM70 °FScattered clouds.5 mph12%29.97 "Hg10 mi
2:15 PM70 °FScattered clouds.9 mph12%29.98 "Hg10 mi
1:55 PM68 °FScattered clouds.8 mph12%29.99 "Hg10 mi
1:35 PM66 °FScattered clouds.5 mph13%30.00 "Hg10 mi
1:15 PM66 °FScattered clouds.9 mph14%30.00 "Hg10 mi
12:55 PM64 °FSunny.6 mph14%30.01 "Hg10 mi
12:15 PM63 °FScattered clouds.No wind16%30.02 "Hg10 mi
11:55 AM63 °FScattered clouds.No wind16%30.02 "Hg7 mi
11:15 AM61 °FScattered clouds.No wind20%30.03 "Hg10 mi
10:35 AM59 °FRefreshingly cool.8 mph21%30.03 "Hg10 mi
10:15 AM57 °FRefreshingly cool.3 mph23%30.03 "Hg10 mi
9:55 AM55 °FScattered clouds.No wind24%30.01 "Hg10 mi
9:35 AM55 °FScattered clouds.7 mph26%30.01 "Hg10 mi
9:15 AM54 °FScattered clouds.8 mph30%30.01 "Hg10 mi
8:55 AM52 °FCool.13 mph35%30.01 "Hg10 mi
8:35 AM52 °FCool.13 mph35%30.00 "Hg10 mi
8:15 AM52 °FCool.13 mph35%30.00 "Hg10 mi
7:55 AM48 °FCool.14 mph43%29.99 "Hg10 mi
7:35 AM48 °FCool.14 mph43%29.99 "Hg10 mi
7:15 AM46 °FCool.13 mph50%29.99 "Hg10 mi
6:55 AM46 °FCool.14 mph46%29.97 "Hg10 mi
6:35 AM46 °FCool.14 mph46%29.97 "Hg10 mi
6:15 AM45 °FQuite cool.10 mph49%29.96 "Hg10 mi
5:55 AM46 °FCool.12 mph46%29.94 "Hg10 mi
5:35 AM46 °FCool.13 mph46%29.94 "Hg10 mi
5:15 AM46 °FCool.16 mph46%29.94 "Hg10 mi
4:55 AM46 °FCool.10 mph46%29.94 "Hg10 mi
4:35 AM46 °FCool.10 mph46%29.94 "Hg10 mi
4:15 AM46 °FCool.18 mph46%29.93 "Hg10 mi
3:55 AM46 °FCool.20 mph46%29.94 "Hg10 mi
3:35 AM48 °FCool.17 mph40%29.94 "Hg10 mi
3:15 AM48 °FCool.20 mph40%29.94 "Hg10 mi
2:55 AM48 °FCool.20 mph37%29.93 "Hg10 mi
2:15 AM50 °FCool.20 mph32%29.94 "Hg10 mi
1:55 AM52 °FCool.17 mph30%29.94 "Hg10 mi
1:35 AM52 °FCool.22 mph28%29.93 "Hg10 mi
1:15 AM52 °FCool.16 mph30%29.95 "Hg10 mi
12:55 AM52 °FCool.12 mph28%29.95 "Hg10 mi
12:35 AM52 °FCool.17 mph28%29.93 "Hg10 mi
12:15 AM54 °FCool.14 mph28%29.95 "Hg10 mi
11:55 PM
Apr 22
54 °FCool.21 mph26%29.94 "Hg10 mi
11:15 PM54 °FCool.16 mph24%29.94 "Hg10 mi
10:55 PM54 °FCool.10 mph24%29.95 "Hg10 mi
10:35 PM52 °FCool.No wind26%29.95 "Hg10 mi
10:15 PM54 °FCool.20 mph26%29.93 "Hg10 mi
9:55 PM54 °FCool.22 mph26%29.93 "Hg10 mi
9:35 PM54 °FCool.21 mph26%29.93 "Hg10 mi
9:15 PM54 °FClear.18 mph26%29.93 "Hg10 mi
8:55 PM54 °FClear.22 mph26%29.90 "Hg10 mi
8:15 PM55 °FSunny.22 mph23%29.91 "Hg10 mi
Weather by CustomWeather, © 2014

See weather overview